CAPE
4 3 3 2 2 2 2 2 2 3 2 0 1 4 4 4 1 1 1 0 0 0 0 0 2 1 0 0 0 0 0 0 0 0 0 0 0 0 0 0 0 25 40 107 112 62 17
4 4 2 3 2 2 1 2 1 2 3 2 3 2 1 0 1 1 1 0 0 0 0 0 1 0 0 0 0 0 0 0 0 0 0 0 0 0 0 0 0 1 0 7 33 20 4
5 5 5 3 1 1 1 1 0 1 1 1 2 1 0 0 0 0 0 0 0 0 0 0 6 0 0 0 0 0 0 0 0 0 0 0 0 0 0 0 0 0 0 0 11 0 1
5 6 4 2 1 0 1 0 1 2 3 3 2 1 0 0 0 0 0 0 0 0 0 0 6 0 0 0 0 0 0 0 0 0 0 0 0 0 0 0 0 0 0 0 15 25 19
4 4 3 2 1 3 4 3 3 7 6 5 3 1 0 0 0 0 0 0 0 0 0 0 0 0 0 0 0 0 0 0 0 0 0 0 0 0 0 0 0 0 0 0 0 33 46
6 7 4 2 1 2 1 2 4 7 4 2 0 0 0 0 0 0 0 0 0 0 0 0 0 0 0 0 0 0 0 0 0 0 0 0 0 0 0 0 0 0 0 0 0 0 28
4 5 2 2 0 2 2 3 4 5 5 3 1 0 0 0 0 0 0 0 0 0 0 0 0 0 0 0 0 0 0 0 0 0 0 0 0 0 0 0 0 0 0 0 0 0 0
4 4 3 1 1 3 4 3 3 5 3 1 0 0 0 0 0 0 0 0 0 0 0 0 0 0 0 0 0 0 0 0 0 0 0 0 0 0 0 0 0 0 0 0 0 0 0
5 3 3 3 3 4 5 5 4 1 1 1 0 0 0 0 0 0 0 0 0 0 0 0 0 0 0 0 0 0 0 0 0 0 0 0 0 0 0 0 0 0 0 0 0 0 0
2 5 5 4 5 5 5 3 2 1 0 0 0 0 0 0 0 0 0 0 0 0 0 0 0 0 0 0 0 0 0 0 0 0 0 0 0 0 0 0 0 0 0 0 0 0 0
4 9 8 6 6 4 3 2 2 1 0 0 0 0 0 0 0 0 0 0 0 0 0 0 0 0 0 0 0 0 0 0 0 0 0 0 0 0 0 0 0 0 0 0 0 0 0
7 8 6 5 4 4 3 1 0 0 0 0 0 0 0 0 0 0 0 0 0 0 0 0 0 0 0 0 0 0 0 0 0 0 0 0 0 0 0 0 0 0 0 0 0 0 0
3 4 2 2 4 3 2 1 0 0 0 0 0 0 0 0 0 0 0 0 0 0 0 0 0 0 0 0 0 0 0 0 0 0 0 0 0 0 0 0 0 0 0 0 0 0 0
3 8 6 3 3 2 3 4 0 0 0 0 0 0 0 0 0 0 0 0 0 0 0 0 0 0 0 0 0 0 0 0 0 0 0 0 0 0 0 0 0 0 0 0 0 0 0
3 6 4 3 3 2 1 4 0 0 0 0 0 0 0 0 0 0 0 0 0 0 0 0 0 0 0 0 0 0 0 0 0 0 0 0 0 0 0 0 0 0 0 0 0 0 0
1 2 3 4 4 1 0 4 1 0 0 0 0 0 0 0 0 0 0 0 0 0 0 0 0 0 0 0 0 0 0 0 0 0 0 0 0 0 0 0 0 0 0 0 0 0 0
0 0 1 4 5 2 0 4 3 0 0 0 0 0 0 0 0 0 0 0 0 0 0 0 0 2 0 8 0 0 0 0 2 3 0 0 0 0 0 0 0 0 0 0 0 0 0
0 1 3 5 6 5 3 6 2 0 0 0 0 0 0 0 0 0 0 0 0 0 0 0 0 1 0 15 17 9 5 19 1 8 6 1 0 0 0 0 0 0 0 0 0 0 0
1 3 6 6 6 12 7 4 1 0 0 1 0 0 0 0 0 0 0 0 0 0 0 0 0 0 0 35 35 47 30 9 19 8 20 14 3 0 0 0 0 0 0 0 0 0 0
1 1 4 4 8 10 7 6 3 0 0 0 0 0 0 0 0 0 0 0 0 0 0 0 0 0 0 4 43 52 21 17 3 2 24 30 0 0 0 0 0 0 0 0 0 0 0
0 0 0 1 4 3 11 15 8 0 0 0 0 0 0 0 0 0 0 0 0 0 0 1 0 14 0 0 0 41 9 1 1 9 6 3 1 0 0 0 0 0 0 0 0 0 0
0 0 0 1 4 7 17 21 18 5 1 0 0 0 0 0 0 0 0 0 1 0 6 0 5 2 0 0 3 0 6 2 11 0 0 0 0 0 0 0 0 0 0 0 0 0 0
0 0 0 3 9 14 16 21 21 16 7 1 0 0 0 3 1 3 0 0 0 6 0 25 13 1 0 0 1 0 1 0 1 3 0 0 0 0 0 0 0 0 0 0 0 0 0
0 0 1 4 9 9 5 14 24 20 20 16 1 5 2 3 12 13 10 7 6 3 10 6 3 1 4 0 0 0 0 0 0 0 0 0 0 0 0 0 0 0 0 0 0 0 0
2 1 3 7 11 5 9 14 17 32 26 12 2 3 1 3 7 9 12 17 2 0 5 33 7 1 0 0 0 0 0 0 0 0 0 0 0 0 0 0 0 0 0 0 0 0 0
3 5 8 10 4 12 16 21 29 32 28 24 6 0 0 1 3 7 17 8 9 11 3 0 4 0 1 0 0 0 4 4 7 5 0 0 0 0 0 0 0 0 0 0 0 0 0
3 8 11 11 15 16 18 23 27 33 31 25 11 0 0 1 0 1 13 12 9 12 10 3 0 0 0 3 12 26 10 9 7 15 0 0 0 0 0 0 0 0 0 0 0 0 0
6 13 14 11 13 15 18 19 23 30 32 35 9 0 0 1 0 1 3 11 14 11 15 7 1 0 0 6 27 20 16 4 2 13 8 8 1 0 0 0 7 3 0 0 0 0 0
11 15 10 13 13 10 16 18 20 27 31 24 6 0 1 0 0 0 0 0 2 1 7 4 4 0 16 0 1 1 6 6 0 11 8 4 14 13 12 17 1 20 1 0 0 0 0
CIN
0 0 0 0 0 0 0 0 0 0 0 0 0 0 0 0 0 0 0 0 0 0 0 0 0 -2 0 0 0 0 0 0 0 0 0 0 0 0 0 0 0 -210 -211 -130 -103 -97 -109
0 0 0 0 0 0 0 0 0 0 0 0 0 0 0 0 0 0 0 0 0 0 0 0 -1 0 0 0 0 0 0 0 0 0 0 0 0 0 0 0 0 -91 -11 -72 -61 -89 -57
0 0 0 0 0 0 0 0 0 0 0 0 0 0 0 0 0 0 0 0 0 0 0 0 -2 0 0 0 0 0 0 0 0 0 0 0 0 0 0 0 0 0 0 0 -50 -3 -24
0 0 0 0 0 0 0 0 0 0 0 0 0 0 0 0 0 0 0 0 0 0 0 0 -1 -1 0 0 0 0 0 0 0 0 0 0 0 0 0 0 0 0 0 0 -134 -54 -56
0 0 0 0 0 0 0 0 0 0 0 0 0 0 0 0 0 0 0 0 0 0 0 0 0 0 0 0 0 0 0 0 0 0 0 0 0 0 0 0 0 0 0 0 0 -102 -46
0 0 0 0 0 0 0 0 0 0 0 0 0 0 0 0 0 0 0 0 0 0 0 0 0 0 0 0 0 0 0 0 0 0 0 0 0 0 0 0 0 0 0 0 0 0 -46
0 0 0 0 0 0 0 0 0 0 0 0 0 0 0 0 0 0 0 0 0 0 0 0 0 0 0 0 0 0 0 0 0 0 0 0 0 0 0 0 0 0 0 0 0 0 0
0 0 0 0 0 0 0 0 0 0 0 0 0 0 0 0 0 0 0 0 0 0 0 0 0 0 0 0 0 0 0 0 0 0 0 0 0 0 0 0 0 0 0 0 0 0 0
0 0 0 0 0 0 0 0 0 0 0 0 0 0 0 0 0 0 0 0 0 0 0 0 0 0 0 0 0 0 0 0 0 0 0 0 0 0 0 0 0 0 0 0 0 0 0
0 0 0 0 0 0 0 0 0 0 0 0 0 0 0 0 0 0 0 0 0 0 0 0 0 0 0 0 0 0 0 0 0 0 0 0 0 0 0 0 0 0 0 0 0 0 0
0 0 0 0 0 0 0 0 0 0 0 0 0 0 0 0 0 0 0 0 0 0 0 0 0 0 0 0 0 0 0 0 0 0 0 0 0 0 0 0 0 0 0 0 0 0 0
0 0 0 0 0 0 0 0 0 0 0 0 0 0 0 0 0 0 0 0 0 0 0 0 0 0 0 0 0 0 0 0 0 0 0 0 0 0 0 0 0 0 0 0 0 0 0
0 0 0 0 0 0 0 0 0 0 0 0 0 0 0 0 0 0 0 0 0 0 0 0 0 0 0 0 0 0 0 0 0 0 0 0 0 0 0 0 0 0 0 0 0 0 0
0 0 0 0 0 0 0 0 0 0 0 0 0 0 0 0 0 0 0 0 0 0 0 0 0 0 0 0 0 0 0 0 0 0 0 0 0 0 0 0 0 0 0 0 0 0 0
0 0 0 0 0 0 0 0 0 0 0 0 0 0 0 0 0 0 0 0 0 0 0 0 0 0 0 0 0 0 0 0 0 0 0 0 0 0 0 0 0 0 0 0 0 0 0
0 0 0 0 0 0 0 0 0 0 0 0 0 0 0 0 0 0 0 0 0 0 0 0 0 0 0 0 0 0 0 0 0 0 0 0 0 0 0 0 0 0 0 0 0 0 0
0 0 0 0 0 0 0 0 0 0 0 0 0 0 0 0 0 0 0 0 0 0 0 0 0 -10 0 -6 0 0 0 0 -3 0 0 0 0 0 0 0 0 0 0 0 0 0 0
0 0 0 0 0 0 0 0 0 0 0 0 0 0 0 0 0 0 0 0 0 0 0 0 0 -46 0 -62 -25 -6 -1 0 -1 0 0 0 0 0 0 0 0 0 0 0 0 0 0
0 0 0 0 0 0 0 0 -2 0 0 0 0 0 0 0 0 0 0 0 0 0 0 0 0 0 0 -35 -15 -24 -1 -3 0 0 0 0 0 0 0 0 0 0 0 0 0 0 0
0 0 0 0 0 0 0 0 -2 0 0 0 0 0 0 0 0 0 0 0 0 0 0 0 0 0 0 -14 -40 -8 -7 -1 0 0 0 0 0 0 0 0 0 0 0 0 0 0 0
0 0 0 0 0 0 0 0 -2 0 0 0 0 0 0 0 0 0 0 0 0 0 0 -5 0 -15 -19 0 0 -24 -12 -2 0 0 0 0 0 0 0 0 0 0 0 0 0 0 0
0 0 0 0 0 0 0 0 -1 -9 -6 0 0 0 0 0 0 0 0 0 0 -24 -9 0 -28 -10 0 0 -12 0 -28 -17 -2 0 0 0 0 0 0 0 0 0 0 0 0 0 0
0 0 0 0 0 0 0 0 -1 -9 -8 -17 0 0 0 0 0 0 0 0 0 -1 0 -12 -23 -10 0 0 -34 0 -24 0 -19 -24 0 0 0 0 0 0 0 0 0 0 0 0 0
0 0 0 0 0 0 0 -1 -3 -5 -5 -2 -7 -1 0 0 0 0 0 0 0 0 0 -7 -11 -36 -32 0 0 0 0 0 0 0 0 0 0 0 0 0 0 0 0 0 0 0 0
0 0 0 0 0 0 0 0 0 -1 -4 -1 -6 -3 0 0 0 0 0 0 0 0 -3 -14 -29 -3 0 0 0 0 0 0 0 0 0 0 0 0 0 0 0 0 0 0 0 0 0
0 0 0 0 0 0 0 0 0 0 -2 0 -2 0 0 0 0 0 0 0 0 0 0 -5 -45 0 -47 0 0 0 0 0 0 -9 0 0 0 0 0 0 0 0 0 0 0 0 0
0 0 0 0 0 0 0 0 0 0 -1 -1 -1 0 0 0 0 0 0 0 0 0 0 -1 0 0 -27 -3 -9 0 0 0 0 0 0 0 0 0 0 0 0 0 0 0 0 0 0
0 0 0 0 -1 0 0 0 0 0 0 0 -1 0 0 0 0 0 0 0 0 0 0 -7 -13 0 0 -8 0 0 0 -2 0 0 0 0 0 0 0 0 0 -2 0 0 0 0 0
0 0 0 0 0 0 0 0 0 0 0 0 0 0 0 0 0 0 0 0 0 0 -14 -4 -9 0 -4 0 -3 0 0 -3 0 0 0 0 0 0 0 0 -16 -15 -25 0 0 0 0
Wind_Speed
19 19 19 20 21 21 22 23 23 23 24 26 26 25 26 26 27 27 25 23 22 20 18 13 10 2 1 1 15 9 7 18 18 20 18 14 10 9 10 12 14 16 21 18 16 15 12
18 18 19 20 20 21 22 23 23 24 24 25 25 25 26 27 27 27 26 24 22 20 17 13 8 5 2 5 7 11 1 18 21 18 16 11 11 12 6 10 15 7 22 17 6 7 3
18 19 20 20 21 21 22 22 23 24 24 25 25 26 27 27 29 29 28 25 24 23 15 9 8 5 4 21 4 7 3 10 14 23 14 16 12 13 10 8 23 18 18 15 12 9 5
19 19 20 20 21 21 21 22 23 23 24 24 25 26 27 29 29 28 28 29 25 21 3 5 8 5 12 8 8 15 8 5 9 18 9 16 12 5 3 7 9 11 15 16 12 11 11
18 19 20 20 21 21 21 21 22 23 23 24 25 27 27 29 30 28 29 29 24 5 6 9 6 5 14 10 4 9 8 8 10 6 8 11 6 7 3 5 6 4 8 6 12 20 6
18 19 19 20 21 20 20 22 23 24 25 26 27 27 30 30 30 27 29 26 15 5 3 8 1 4 6 3 7 17 9 10 8 11 5 10 6 6 10 5 13 6 5 6 11 12 20
18 19 20 21 22 21 22 23 24 24 24 24 25 26 27 30 31 29 14 7 11 8 6 10 16 14 25 18 18 8 7 11 12 6 10 10 12 18 25 15 6 5 9 8 11 13 7
18 19 20 20 20 21 23 24 25 24 24 25 25 26 26 29 32 27 1 5 6 8 14 10 15 14 21 12 11 21 8 12 11 17 11 4 20 21 7 12 14 14 9 12 17 16 5
18 19 19 19 20 21 22 22 23 24 24 25 25 26 26 30 32 5 5 7 8 4 2 12 3 3 6 2 5 18 4 7 6 12 17 20 6 16 16 15 17 15 14 13 9 8 5
17 17 17 18 20 21 22 23 24 25 26 25 26 28 26 30 6 6 7 8 7 2 4 8 7 6 18 15 3 26 8 7 10 19 16 18 23 22 20 21 18 17 17 18 13 7 9
17 18 18 19 21 22 23 23 24 26 28 28 27 29 27 15 4 4 10 9 14 6 3 7 6 4 13 11 13 15 24 11 18 14 11 22 24 26 25 25 19 19 12 16 16 6 3
17 18 20 20 21 22 23 24 25 27 29 31 29 31 26 3 2 11 9 14 5 6 5 6 9 18 27 16 14 17 17 19 11 21 20 22 9 23 29 21 20 10 11 9 11 4 8
18 19 19 19 20 21 22 24 26 27 29 32 32 32 18 2 5 2 7 6 7 4 10 10 14 21 13 19 16 16 21 16 10 7 22 19 22 23 11 21 16 14 8 8 7 9 10
18 17 18 19 19 20 21 23 26 28 30 33 34 29 5 6 7 3 5 7 5 9 3 7 11 11 12 19 8 17 17 18 16 23 6 18 22 24 19 9 20 17 12 7 14 6 12
17 17 18 18 19 19 20 21 24 28 31 33 29 6 4 7 8 5 6 4 2 4 5 6 7 6 13 10 10 12 11 3 13 20 12 7 21 14 27 20 21 10 21 11 7 2 3
17 17 18 18 19 20 20 20 22 27 30 33 9 5 6 9 0 5 5 6 2 5 4 5 4 4 10 5 9 11 7 6 20 22 20 8 10 28 22 20 18 21 9 10 4 7 5
17 18 18 17 18 19 20 20 21 23 27 28 4 5 5 16 4 6 3 4 1 7 7 4 3 4 6 4 4 8 7 18 12 22 17 16 5 8 1 20 29 8 15 6 7 7 8
16 17 17 17 17 18 19 20 19 20 21 8 4 5 5 10 5 2 2 5 4 4 7 3 3 3 3 3 5 5 6 5 13 15 14 14 8 7 15 7 2 20 9 11 9 11 4
16 16 17 17 17 17 18 18 17 17 14 6 5 5 5 6 5 5 7 7 3 1 2 3 3 3 3 4 3 3 3 9 13 9 8 10 5 8 7 6 6 6 15 13 6 6 12
16 17 18 17 16 17 16 16 15 14 14 3 3 5 6 5 2 2 6 6 9 7 4 4 6 3 3 2 6 5 2 5 10 11 8 10 6 8 6 5 9 4 9 13 17 10 10
18 18 19 18 17 17 16 15 14 13 13 3 1 3 1 5 5 11 3 6 10 7 4 5 4 3 4 3 7 3 9 6 9 9 5 4 8 7 19 24 22 20 6 19 14 14 15
18 18 18 18 18 17 16 14 12 12 12 2 1 2 4 5 7 7 6 4 9 15 9 6 7 13 5 5 6 8 12 5 5 6 3 5 6 9 14 13 16 11 7 7 18 16 6
19 19 19 20 18 17 16 14 11 9 3 2 2 0 2 2 3 4 3 10 18 14 9 15 12 7 6 10 8 11 12 11 11 5 5 4 3 6 8 9 8 2 10 7 14 8 13
19 20 20 20 20 19 17 15 12 9 5 2 3 1 2 5 5 4 11 17 14 13 11 14 7 3 7 8 9 9 10 12 10 9 10 6 3 4 7 9 7 8 20 14 21 20 21
19 20 21 20 20 20 17 15 14 11 10 3 2 3 3 4 5 8 11 7 13 13 10 13 7 5 7 5 3 5 4 3 9 11 10 10 4 5 2 4 1 14 19 15 4 14 20
20 20 20 20 21 19 17 16 14 12 11 4 4 3 2 1 4 8 6 10 6 3 5 5 7 6 5 3 2 1 3 3 4 7 12 8 10 3 5 2 6 11 24 21 9 16 21
20 20 20 21 19 19 17 16 15 13 10 3 2 4 2 2 4 4 3 3 4 2 3 5 10 7 4 5 4 2 2 5 4 3 1 5 8 4 1 5 6 21 30 14 13 3 12
21 20 19 19 18 17 16 14 13 12 11 3 2 7 4 3 3 5 4 3 6 3 2 4 5 5 4 5 3 3 3 4 3 3 2 4 4 5 5 5 5 20 14 16 10 6 11
20 19 18 17 16 16 15 14 13 11 8 2 2 2 3 1 3 2 8 13 10 8 3 2 2 3 3 4 3 4 2 3 5 3 3 5 2 2 4 3 4 4 6 12 16 13 5
Wind_Direction
24 20 17 13 10 7 4 360 357 353 349 346 343 339 336 333 329 328 327 324 318 310 304 307 302 333 284 210 251 272 316 169 167 164 178 184 184 182 187 205 238 235 244 230 233 235 235
20 17 14 11 8 5 2 359 355 353 349 345 341 339 337 333 330 328 327 323 313 308 301 295 270 133 171 242 246 246 355 142 169 168 185 183 196 206 236 233 203 240 250 263 188 221 244
16 13 11 8 5 2 360 357 353 350 347 344 339 338 335 334 331 330 327 323 316 309 299 271 244 163 241 239 256 20 182 175 179 179 173 202 213 186 203 215 238 246 267 272 222 197 197
13 9 7 4 2 359 356 354 351 347 344 341 338 336 336 333 331 333 327 321 319 318 355 202 214 189 250 256 255 269 277 274 187 193 170 185 203 218 199 314 318 228 239 254 231 230 149
10 6 3 1 359 355 352 350 346 344 342 340 339 336 336 333 330 334 326 316 317 17 114 142 135 195 264 288 199 253 191 194 170 194 220 174 152 209 268 214 299 233 240 242 242 217 170
6 2 360 359 357 352 350 347 345 344 344 342 339 339 336 334 331 331 326 311 302 114 178 187 229 295 268 348 341 321 197 188 163 171 195 208 191 177 224 166 213 209 196 210 236 243 200
4 360 359 357 355 351 348 345 343 343 341 339 337 337 335 332 330 326 338 353 15 346 296 235 252 263 289 303 318 296 324 173 193 171 184 193 194 205 214 210 240 236 213 246 255 243 194
0 359 357 354 352 349 346 344 340 338 339 339 337 334 337 332 325 322 10 46 294 252 301 301 255 250 252 268 297 292 351 183 177 211 181 168 216 218 199 205 214 230 240 244 264 269 183
357 356 353 351 349 347 343 340 338 337 338 337 336 335 341 333 322 351 309 268 301 10 311 303 250 208 254 154 236 286 306 294 201 202 196 210 232 208 207 224 212 220 224 243 228 284 305
354 352 350 350 347 344 342 341 339 338 335 336 336 337 340 337 31 332 292 267 316 130 24 279 3 37 1 330 281 303 259 219 243 221 215 226 232 199 215 219 207 218 219 240 247 251 253
352 349 349 349 346 345 342 338 339 339 334 335 337 333 331 330 264 317 255 333 315 64 317 35 19 317 345 46 326 335 336 263 235 248 181 217 200 216 210 214 205 222 212 230 242 227 286
349 348 347 348 347 342 338 339 340 337 333 332 335 326 333 4 240 240 329 310 48 49 290 340 17 350 353 13 360 337 357 342 238 234 261 224 223 207 227 222 217 196 206 241 242 192 239
346 344 344 343 342 339 339 338 337 336 334 331 331 322 325 242 239 314 3 3 37 87 348 355 342 358 354 348 350 7 351 341 326 193 230 235 226 236 204 217 208 214 148 219 246 223 228
341 340 340 339 340 338 339 339 335 336 335 331 330 317 223 216 246 22 39 37 73 347 3 337 359 1 359 348 350 350 356 342 1 358 279 213 234 220 218 196 207 210 198 176 213 205 229
337 337 336 335 337 336 339 340 336 336 334 335 329 329 304 263 235 98 67 19 227 337 325 353 353 347 331 10 349 355 345 267 6 14 0 262 228 232 216 217 191 204 214 174 128 259 160
331 333 333 333 334 335 336 340 340 336 336 334 323 331 296 290 75 86 86 228 265 349 23 14 350 338 321 5 350 349 341 275 343 2 351 299 300 228 236 208 227 209 165 185 175 202 239
329 328 328 329 331 331 333 340 341 338 337 330 5 355 261 344 77 55 139 232 15 13 37 31 315 305 313 304 40 341 327 316 0 337 343 316 303 278 157 209 213 207 198 197 152 154 201
323 322 322 325 329 329 332 337 339 336 340 13 352 339 297 6 30 21 25 320 353 6 21 345 265 319 281 28 291 262 306 234 313 353 335 317 293 277 233 243 269 216 195 185 198 212 193
319 319 319 324 327 329 330 332 335 334 360 332 317 273 313 50 57 333 318 324 353 57 271 278 274 230 266 159 304 340 277 307 320 8 352 339 346 315 311 30 285 215 210 196 142 131 205
320 320 320 323 325 328 326 328 331 331 339 30 332 335 331 10 38 45 357 292 322 322 253 269 233 302 332 277 200 231 199 274 326 313 305 327 247 238 275 278 340 219 249 194 188 198 197
319 319 320 322 325 325 324 328 328 325 328 84 21 278 203 319 331 325 284 260 321 344 332 303 330 246 243 254 298 200 287 291 353 25 12 298 264 257 265 272 269 256 250 204 197 191 199
316 317 317 318 321 322 322 322 318 318 337 89 272 18 356 284 296 302 298 298 349 334 337 307 334 307 301 221 201 276 293 291 247 178 314 256 276 310 289 241 215 231 242 271 207 200 179
314 313 318 319 320 320 321 314 314 318 13 282 291 272 146 250 281 310 276 339 313 317 300 312 307 306 288 285 269 269 261 254 244 180 197 223 288 337 271 326 151 118 352 309 203 187 196
309 313 317 318 319 319 319 316 308 287 244 226 235 140 198 266 241 252 288 302 314 324 302 303 321 348 274 284 301 285 274 267 231 240 200 231 230 237 269 306 146 126 37 26 63 38 21
310 312 315 316 318 318 316 309 301 293 265 211 216 198 185 257 259 270 286 301 311 304 297 306 331 256 290 284 302 302 2 274 219 229 225 221 239 268 285 279 201 19 2 339 8 44 10
310 312 314 317 318 315 312 305 300 287 276 243 232 155 163 243 235 256 300 292 288 314 310 285 325 284 8 4 319 239 323 282 16 356 164 246 261 202 319 357 49 347 335 326 142 37 354
311 313 316 318 317 313 310 311 307 296 281 240 256 159 139 213 254 218 246 304 273 284 274 308 334 324 24 12 323 326 262 306 38 64 91 280 299 196 182 64 43 359 341 26 57 23 351
313 317 319 317 315 311 314 315 308 303 294 268 257 182 175 209 271 235 266 270 267 190 300 321 321 349 350 17 349 336 306 352 58 39 18 37 345 360 347 65 61 0 3 51 343 26 22
316 321 319 315 316 316 321 315 311 308 298 275 255 192 197 204 279 259 263 263 267 259 265 286 219 268 308 23 352 302 298 312 330 54 4 56 107 355 25 75 281 35 352 358 358 7 346